Zurück zum Katalog

COSMOS 2251 DEB

AktivLEO
NORAD 34588·DEBRIS·🇷🇺 Russia

Gestartet Jun 16, 1993 von Plesetsk Cosmodrome

Loading…

Nächste Überflüge (nächste 24 Stunden)

TLE

AktuellSource: Space-Track

Epoche: Sep 14, 2026, 09:05 UTC

1 34588U 93036WA  26257.37902009  .00000699  00000-0  21759-3 0  9992
2 34588  74.0415 117.1818 0017894 107.9422  66.8741 14.42675932919242

Verfolge COSMOS 2251 DEB in Echtzeit mit AllMySat

Download on the App Store